Temperature
8 7 7 8 9 10 11 11 11 12 13 12 12 12 12 13 13 13 14 14 14 14 13 13 12 12 12 11 11 11 11 11 11 11 11 11 11 11 11 11 11 11 11 11
7 7 8 9 10 10 10 9 10 11 12 12 11 11 12 13 13 13 14 14 14 13 13 13 12 12 11 11 11 11 11 11 11 11 11 11 11 11 11 11 11 11 11 11
6 7 9 9 9 9 9 9 9 10 11 11 11 10 11 12 13 13 13 13 13 13 12 12 12 11 11 11 11 11 11 11 11 11 11 10 10 10 10 10 10 10 10 11
6 8 8 8 8 8 8 9 10 10 9 8 10 8 11 12 12 12 12 13 12 12 12 12 11 11 11 10 10 10 10 11 11 11 11 10 10 10 10 10 10 10 10 10
5 7 7 7 7 8 8 9 9 9 8 8 9 8 9 12 11 11 11 12 12 12 11 11 11 11 10 10 10 10 10 10 10 10 10 10 10 10 10 10 10 10 10 10
6 7 7 7 7 8 8 8 8 8 7 6 8 8 9 10 11 11 11 12 11 11 11 10 10 10 10 10 10 10 9 10 10 10 10 10 10 10 10 10 9 10 9 10
5 5 6 7 6 7 7 6 5 5 5 6 9 9 9 10 11 11 10 11 11 10 10 10 10 9 9 9 9 9 9 9 9 10 10 10 10 10 10 10 9 9 9 9
3 3 5 6 5 5 5 5 5 5 6 7 9 8 8 10 10 10 10 10 10 9 9 9 9 9 9 9 9 8 8 9 9 9 9 9 9 9 9 9 9 9 9 9
2 3 5 5 6 6 5 5 6 5 6 6 7 8 8 9 9 9 9 9 9 8 8 8 8 8 8 8 8 8 8 8 8 9 9 9 9 8 9 9 9 9 9 9
1 1 3 4 5 5 5 5 5 4 5 6 7 7 7 7 7 7 7 8 8 8 7 7 7 7 7 7 7 7 7 8 8 8 8 8 8 8 8 8 8 8 8 8
1 1 2 3 3 3 4 4 4 4 5 5 6 6 7 7 7 6 6 7 7 6 6 6 6 6 6 6 6 7 7 7 7 7 7 7 7 8 8 8 8 8 8 8
1 1 1 2 3 3 3 3 3 3 4 5 5 5 6 6 6 6 6 6 6 5 5 5 5 5 5 5 6 6 6 6 7 7 7 7 7 7 7 7 7 7 7 7
1 -0 -0 1 2 2 2 2 3 3 3 4 4 4 5 5 5 5 5 5 5 5 4 4 4 4 4 5 5 5 5 6 6 6 6 6 6 6 6 6 6 6 7 7
1 -0 -0 -0 0 1 1 2 2 2 2 3 3 4 4 4 4 4 4 4 4 4 3 3 3 4 4 4 4 5 5 5 5 5 6 6 6 6 6 6 6 6 6 6
-0 -1 -0 0 1 1 1 1 1 1 2 2 3 3 3 3 3 3 4 3 3 3 3 3 3 3 3 3 4 4 4 4 5 5 5 5 5 5 5 5 5 5 5 6
-1 -2 -1 -1 1 1 1 1 1 1 2 2 2 2 3 3 3 3 3 3 2 2 2 2 2 2 2 3 3 3 4 4 4 4 4 4 4 4 4 5 5 5 5 5
-2 -2 -2 -1 1 1 -0 -0 0 0 1 1 1 1 2 2 2 1 2 2 2 1 1 1 1 1 2 2 2 3 3 3 4 4 4 4 4 4 4 4 4 4 4 4
-2 -3 -2 -1 -1 -2 -1 0 0 0 -0 0 0 1 1 1 1 1 1 1 1 1 1 0 1 1 1 1 2 2 2 3 3 3 3 3 3 3 3 3 3 4 4 4
-2 -2 -2 -2 -2 -1 -1 -1 -1 -1 -1 -1 -1 -0 0 0 0 0 0 0 0 0 0 0 0 0 1 1 1 2 2 2 2 2 2 2 2 3 3 3 3 3 3 3
-2 -2 -3 -2 -2 -2 -2 -1 -0 -0 -1 -2 -1 -1 -1 -1 -1 -1 -1 -1 -1 -0 -0 -0 -0 -0 0 1 1 1 1 2 2 2 2 2 2 2 2 2 2 2 2 2
-3 -3 -3 -3 -3 -2 -3 -2 -1 -2 -3 -2 -2 -2 -2 -2 -2 -2 -2 -1 -1 -1 -1 -1 -1 -0 -0 -0 0 1 1 1 1 1 1 2 1 1 1 1 1 1 1 1
-4 -4 -4 -3 -4 -4 -3 -3 -3 -4 -3 -3 -3 -3 -3 -3 -3 -3 -2 -2 -2 -2 -1 -1 -1 -1 -1 -1 -0 0 0 0 1 1 1 1 1 1 1 1 1 1 1 1
-4 -5 -5 -4 -4 -4 -4 -4 -4 -4 -4 -4 -4 -4 -4 -4 -4 -3 -3 -3 -3 -3 -3 -2 -2 -2 -2 -1 -1 -1 -0 -0 0 0 0 0 0 0 0 0 0 0 0 0
-4 -4 -4 -4 -4 -4 -4 -5 -5 -5 -5 -5 -4 -4 -4 -4 -4 -4 -4 -4 -4 -4 -3 -3 -3 -3 -3 -2 -2 -1 -1 -1 -0 -0 -1 -1 -1 -0 -0 -0 -0 -0 -0 -0
-6 -5 -5 -5 -5 -5 -5 -5 -5 -5 -5 -5 -5 -5 -5 -5 -5 -4 -4 -4 -4 -4 -4 -4 -4 -3 -3 -3 -2 -2 -2 -1 -1 -1 -1 -1 -1 -1 -1 -1 -1 -1 -1 -1
-6 -6 -6 -6 -6 -6 -6 -6 -6 -6 -6 -6 -5 -5 -5 -5 -5 -5 -5 -5 -5 -5 -5 -4 -4 -4 -4 -3 -3 -3 -2 -2 -2 -2 -2 -2 -2 -2 -2 -2 -2 -2 -2 -2
Wind_Speed
6 7 11 14 17 15 11 12 13 11 7 10 13 14 11 8 8 9 8 7 7 6 6 6 6 7 7 7 7 8 7 7 6 5 5 5 5 5 4 4 7 8 9 9
6 12 12 10 11 13 14 14 14 9 8 8 10 12 10 9 10 9 8 7 6 5 5 6 6 7 7 7 7 7 7 8 7 6 5 4 5 4 4 4 6 8 8 9
11 6 8 11 11 12 14 13 12 8 5 6 6 9 11 9 8 8 7 6 5 6 6 6 7 6 6 6 7 7 7 7 7 7 5 5 4 3 3 4 4 5 8 8
8 9 7 9 10 10 12 9 9 8 5 5 7 6 9 10 10 10 8 6 5 5 5 5 6 6 6 5 5 6 7 7 7 8 7 8 6 5 4 4 4 4 7 7
6 6 8 10 10 10 7 6 8 8 6 6 7 6 6 8 9 9 7 6 6 5 5 4 5 5 5 5 5 5 7 7 6 7 8 8 6 4 4 5 5 5 4 6
9 6 5 6 7 7 5 5 6 6 4 8 11 9 5 6 8 8 7 6 5 4 4 3 4 5 4 4 4 5 6 6 7 6 7 8 8 8 7 7 6 5 4 4
7 6 4 3 3 3 4 3 3 5 6 8 8 7 4 2 4 5 6 6 5 4 4 3 3 4 4 4 4 5 6 6 7 7 6 7 8 8 9 8 7 6 5 4
4 5 3 2 3 4 6 5 4 4 5 3 6 6 2 2 4 5 6 5 5 5 4 3 3 3 3 4 4 4 5 6 6 6 6 6 6 5 5 6 6 6 5 5
5 4 4 4 3 3 4 5 4 3 2 3 4 4 2 5 6 6 5 4 3 4 4 3 3 2 2 3 3 3 4 5 6 6 6 5 5 5 5 5 5 4 4 5
5 6 5 4 2 3 3 2 2 3 2 3 4 4 3 4 3 4 4 3 2 4 4 3 2 2 2 1 2 2 3 4 5 5 5 5 5 5 5 5 5 5 5 5
5 4 5 2 1 2 2 2 2 3 3 2 2 1 4 4 4 4 4 4 4 5 4 3 3 2 2 2 2 3 2 3 4 5 5 5 5 5 5 5 5 5 5 6
4 3 5 4 1 2 1 1 1 2 3 3 1 1 7 9 7 6 6 6 6 6 5 4 4 3 3 3 3 3 2 3 3 4 5 5 5 5 5 5 5 5 5 5
4 3 4 3 1 3 3 4 3 3 2 2 2 1 6 9 10 8 7 6 6 6 6 5 4 4 4 4 3 3 3 3 3 4 4 5 5 5 5 5 5 5 5 5
6 2 2 3 3 3 4 5 3 1 1 2 1 1 5 8 8 8 7 6 6 6 5 5 5 4 4 4 3 3 3 3 3 4 4 4 4 5 4 5 5 5 5 5
4 3 4 6 6 4 5 5 3 1 2 1 2 2 5 5 5 5 5 5 6 5 6 6 5 5 4 4 3 3 4 3 3 4 4 3 4 4 4 4 5 5 5 5
3 3 4 6 5 3 4 6 5 4 3 3 4 4 5 6 6 6 6 5 5 5 5 5 5 5 4 4 3 3 3 3 3 4 3 3 4 4 4 4 4 4 4 4
3 2 2 3 4 3 3 4 3 2 2 3 3 5 6 7 7 6 5 5 5 5 5 5 5 5 4 4 3 2 2 3 3 3 3 3 4 4 4 4 4 4 4 4
3 3 2 3 3 1 0 4 4 3 3 6 5 6 6 6 6 5 6 5 5 5 5 4 4 4 4 4 3 2 2 3 3 3 3 3 4 4 4 4 4 3 3 3
2 2 2 2 2 2 2 6 6 4 2 7 7 8 8 7 6 5 8 7 5 4 4 3 3 3 4 3 3 3 2 3 3 3 3 3 3 4 4 3 3 3 3 3
3 1 1 2 1 1 4 9 9 3 2 9 9 9 8 7 4 4 9 9 7 6 4 4 4 4 4 4 3 4 3 3 2 2 2 2 3 3 4 3 3 2 3 3
3 2 2 3 2 1 6 11 7 3 4 9 8 8 7 5 3 5 8 8 7 6 5 5 4 4 4 4 3 3 3 3 2 2 3 3 3 3 3 3 3 3 3 3
3 3 2 2 1 2 8 7 5 4 6 7 8 7 7 6 6 6 7 7 7 7 6 6 5 5 5 5 4 4 4 3 3 3 4 3 3 3 3 3 3 3 3 3
2 1 2 1 1 3 5 4 5 6 7 7 7 7 6 6 6 7 7 6 6 6 6 5 5 5 6 6 5 4 4 3 3 4 4 3 3 3 3 3 3 3 2 3
3 3 1 1 2 4 6 6 8 8 7 7 7 7 6 6 6 6 6 5 5 6 6 5 5 6 6 6 6 5 4 3 4 4 3 3 3 3 3 3 2 2 2 2
4 4 3 2 3 4 5 7 9 9 8 8 8 7 7 6 6 5 5 5 5 5 6 5 5 5 6 6 6 6 5 4 4 4 3 3 3 3 3 3 3 2 1 1
3 2 3 3 4 4 6 8 9 8 8 8 8 8 7 6 5 5 4 5 5 5 5 5 6 5 5 6 6 6 6 5 4 4 3 3 3 3 3 3 4 6 4 4
Wind_Direction
212 219 221 221 224 238 251 248 250 250 227 218 229 239 241 235 230 225 220 215 208 200 192 179 168 164 163 164 166 167 165 167 161 158 162 162 164 162 160 152 156 159 159 156
232 231 239 249 247 246 253 257 259 261 238 230 240 244 241 231 227 219 217 215 205 197 188 172 160 157 164 167 168 167 165 162 161 161 161 159 153 159 162 152 155 159 160 158
237 251 248 244 245 241 244 246 252 257 269 245 249 255 237 230 225 217 215 205 193 192 187 171 157 159 164 168 168 169 164 158 157 153 149 144 135 134 149 156 162 161 162 162
253 259 265 254 248 242 245 251 260 262 249 243 211 249 234 208 214 211 206 196 186 185 181 167 160 159 163 162 156 159 158 156 156 156 159 159 162 166 171 164 166 162 161 159
265 262 257 254 253 253 254 268 260 257 250 259 227 237 249 204 208 200 190 184 176 172 165 161 156 155 154 154 155 157 153 151 154 161 162 162 164 166 158 153 156 163 160 158
271 282 268 264 272 256 261 261 253 248 238 242 222 216 244 213 199 184 176 166 156 155 147 142 140 138 137 139 147 153 152 156 156 158 167 168 168 166 161 159 163 166 162 163
275 261 257 280 286 246 238 200 194 200 212 233 208 210 232 226 153 151 152 154 146 138 128 122 122 128 130 139 144 155 158 161 159 160 169 174 173 171 170 167 169 166 164 169
287 268 237 276 245 223 229 216 205 207 210 213 190 204 200 79 87 98 101 105 108 109 110 115 114 122 132 141 147 158 163 164 161 165 169 170 169 167 169 169 167 169 169 171
311 295 321 319 299 244 223 235 264 287 272 238 196 172 147 86 83 86 86 88 89 99 100 99 93 108 120 136 147 159 161 163 165 166 164 163 163 162 165 161 157 157 155 157
315 299 293 317 330 305 283 275 251 233 237 234 201 184 187 144 110 102 107 95 85 92 88 93 91 86 99 124 146 143 150 165 162 160 161 160 161 159 153 150 150 149 148 143
311 295 300 313 261 285 287 262 267 255 262 245 202 114 21 76 97 97 86 72 68 73 71 66 70 78 91 99 119 126 124 133 142 149 146 146 149 149 144 146 149 148 142 143
322 296 292 285 288 338 5 319 270 222 262 265 247 70 25 45 57 63 65 59 55 58 54 46 53 57 61 63 92 106 110 117 129 135 140 144 144 143 145 145 144 142 143 145
330 319 313 315 337 17 358 338 304 280 280 274 230 142 36 39 40 41 53 55 56 53 44 36 36 44 50 49 65 91 96 99 110 124 133 140 141 140 143 142 141 143 144 141
345 300 283 292 308 322 317 328 336 313 242 286 271 4 13 25 23 19 23 37 53 51 40 31 30 34 43 41 59 79 84 84 92 108 120 131 137 134 136 135 136 140 141 143
352 303 304 302 304 316 330 334 336 312 271 245 303 351 356 2 3 6 18 32 43 41 35 28 24 26 37 39 53 68 77 83 91 101 111 118 125 124 122 124 128 131 134 139
340 304 313 298 291 301 330 336 328 314 308 303 317 326 358 9 18 16 19 30 32 25 24 23 21 25 27 31 49 60 72 78 91 104 112 112 116 116 118 120 123 127 129 132
314 304 298 292 312 323 324 341 331 313 327 316 310 323 352 8 8 2 8 15 19 11 9 17 20 20 20 20 44 65 75 91 95 101 107 113 120 121 120 117 120 128 132 132
274 294 268 286 324 262 17 5 342 333 16 4 354 349 356 360 351 359 22 16 10 6 2 8 16 18 12 14 33 56 79 100 101 97 100 110 118 123 123 125 132 134 130 138
260 250 277 283 263 255 2 348 336 319 339 8 353 346 348 350 355 19 19 12 4 5 3 12 20 22 19 18 30 57 78 97 103 104 105 111 124 125 123 125 133 131 133 134
320 291 281 293 284 322 348 329 317 288 329 2 353 349 352 360 358 343 353 357 0 9 18 29 29 32 29 16 30 55 66 74 81 97 104 103 113 121 125 129 124 118 129 139
343 321 304 287 267 40 351 333 347 46 331 337 347 352 1 5 345 327 340 352 5 16 26 38 43 38 27 17 34 52 57 54 52 78 90 90 96 103 112 110 106 112 114 120
353 340 331 326 315 322 351 1 21 340 333 344 351 356 359 350 344 347 353 359 10 18 29 36 40 33 25 23 38 51 49 44 54 69 75 73 82 85 98 107 100 107 120 126
22 342 312 318 316 350 359 8 353 348 343 346 348 347 348 344 343 348 352 1 9 18 23 29 43 38 26 22 34 48 37 46 60 70 72 70 75 79 88 104 113 117 124 136
349 339 302 302 346 358 1 4 0 355 348 342 343 343 348 344 342 344 351 2 11 14 21 27 39 39 28 23 28 30 24 40 70 75 73 77 77 74 69 73 89 109 128 139
324 332 327 305 329 342 354 356 352 348 349 349 350 353 351 347 344 345 356 7 13 17 18 25 33 34 26 25 27 22 21 38 65 73 74 73 76 83 79 69 61 70 60 134
341 327 315 293 321 318 312 332 342 346 349 351 352 352 352 353 350 2 14 14 20 24 23 26 30 31 26 28 27 21 22 36 63 73 67 73 80 83 87 81 61 52 58 62
Height
1455 1457 1454 1450 1449 1448 1446 1446 1445 1441 1439 1443 1445 1445 1445 1445 1446 1446 1448 1450 1453 1455 1458 1460 1462 1464 1467 1470 1472 1475 1478 1481 1484 1487 1490 1492 1495 1498 1501 1504 1507 1510 1513 1515
1453 1451 1447 1446 1446 1446 1446 1446 1444 1440 1438 1440 1441 1441 1440 1440 1441 1442 1444 1446 1449 1451 1454 1456 1458 1461 1463 1466 1468 1471 1474 1477 1480 1484 1487 1490 1492 1495 1499 1502 1504 1507 1510 1512
1449 1446 1445 1445 1444 1444 1444 1445 1443 1442 1440 1438 1441 1441 1437 1435 1436 1438 1440 1442 1445 1448 1450 1453 1455 1457 1460 1462 1465 1467 1471 1474 1477 1481 1484 1487 1490 1493 1495 1498 1501 1504 1507 1509
1446 1444 1444 1443 1443 1443 1443 1439 1440 1441 1445 1445 1442 1447 1433 1431 1432 1433 1436 1438 1441 1444 1448 1450 1452 1454 1457 1459 1462 1464 1467 1471 1474 1477 1480 1483 1485 1488 1491 1494 1497 1501 1504 1506
1446 1443 1443 1443 1441 1441 1440 1439 1440 1440 1443 1446 1441 1445 1434 1425 1429 1430 1433 1435 1438 1442 1445 1447 1449 1452 1454 1457 1459 1461 1464 1467 1471 1474 1477 1480 1483 1485 1488 1492 1494 1497 1500 1503
1445 1442 1442 1441 1439 1439 1439 1439 1439 1440 1445 1449 1437 1440 1434 1427 1425 1427 1430 1433 1436 1439 1442 1445 1447 1450 1452 1454 1456 1459 1461 1464 1467 1470 1473 1476 1479 1482 1485 1488 1490 1493 1497 1500
1445 1442 1441 1441 1441 1439 1441 1445 1447 1448 1448 1441 1427 1432 1431 1422 1421 1424 1428 1431 1435 1438 1440 1443 1445 1447 1449 1451 1453 1456 1458 1461 1463 1466 1470 1472 1475 1478 1481 1484 1487 1490 1492 1495
1451 1447 1440 1440 1441 1442 1442 1442 1445 1444 1438 1431 1425 1430 1430 1422 1422 1424 1427 1431 1434 1437 1439 1442 1444 1445 1447 1449 1451 1453 1455 1457 1460 1463 1466 1469 1472 1475 1478 1481 1483 1486 1489 1492
1458 1449 1442 1440 1439 1440 1441 1441 1438 1440 1435 1434 1428 1426 1426 1423 1425 1427 1429 1431 1434 1437 1439 1441 1443 1444 1445 1447 1448 1450 1453 1455 1457 1460 1463 1465 1468 1471 1474 1477 1480 1483 1486 1489
1461 1457 1445 1442 1441 1441 1441 1440 1442 1443 1438 1432 1424 1426 1431 1429 1428 1429 1431 1433 1435 1437 1439 1440 1442 1443 1444 1445 1447 1448 1450 1452 1454 1457 1459 1462 1465 1468 1471 1474 1477 1480 1483 1486
1462 1461 1451 1445 1446 1445 1444 1444 1443 1441 1437 1436 1431 1437 1429 1428 1429 1431 1433 1434 1436 1437 1439 1440 1441 1442 1442 1443 1445 1446 1448 1449 1452 1454 1457 1460 1462 1465 1468 1471 1474 1477 1480 1483
1462 1462 1457 1448 1445 1445 1446 1446 1446 1448 1444 1435 1436 1444 1432 1431 1432 1433 1435 1436 1437 1438 1439 1440 1441 1441 1441 1442 1443 1444 1446 1447 1449 1452 1455 1457 1460 1463 1466 1469 1472 1474 1477 1480
1464 1465 1462 1454 1452 1450 1450 1448 1447 1445 1444 1441 1440 1445 1436 1435 1436 1437 1437 1438 1439 1439 1440 1440 1441 1441 1441 1441 1442 1443 1444 1446 1448 1450 1453 1455 1458 1461 1463 1466 1469 1472 1475 1477
1464 1466 1466 1464 1459 1457 1455 1451 1448 1447 1449 1446 1443 1443 1442 1441 1440 1440 1440 1440 1440 1441 1441 1441 1441 1441 1440 1441 1442 1442 1443 1445 1447 1449 1451 1453 1456 1458 1461 1464 1467 1469 1472 1475
1467 1468 1463 1460 1456 1455 1455 1453 1451 1451 1449 1451 1448 1446 1446 1445 1444 1443 1442 1442 1442 1442 1442 1441 1441 1441 1441 1441 1441 1442 1443 1444 1446 1447 1450 1452 1454 1457 1460 1462 1465 1467 1470 1472
1469 1470 1466 1462 1456 1454 1455 1454 1453 1452 1451 1450 1448 1449 1447 1446 1445 1444 1444 1443 1443 1443 1443 1442 1441 1441 1440 1441 1441 1441 1442 1444 1445 1446 1448 1450 1453 1455 1457 1460 1462 1464 1467 1469
1471 1471 1469 1463 1456 1454 1459 1459 1457 1456 1454 1453 1453 1454 1449 1447 1447 1446 1446 1445 1444 1444 1444 1442 1442 1441 1440 1441 1441 1441 1442 1443 1444 1445 1447 1449 1451 1453 1455 1458 1460 1462 1464 1466
1472 1471 1470 1465 1462 1467 1464 1459 1458 1456 1456 1456 1455 1453 1451 1450 1448 1447 1447 1446 1444 1444 1443 1442 1441 1440 1440 1440 1440 1440 1441 1442 1443 1444 1446 1448 1449 1451 1453 1455 1457 1460 1462 1464
1468 1470 1470 1467 1465 1462 1462 1461 1460 1459 1458 1459 1457 1454 1452 1450 1447 1447 1447 1446 1445 1444 1443 1442 1441 1440 1439 1439 1439 1440 1440 1441 1443 1444 1445 1446 1448 1450 1452 1453 1455 1458 1459 1461
1468 1469 1471 1468 1467 1470 1470 1463 1458 1458 1460 1461 1459 1456 1454 1451 1451 1451 1448 1446 1444 1443 1442 1441 1440 1439 1438 1438 1439 1439 1439 1440 1442 1443 1444 1446 1447 1449 1450 1452 1454 1456 1458 1459
1474 1473 1474 1472 1471 1470 1472 1465 1460 1467 1470 1464 1461 1458 1456 1455 1456 1453 1449 1446 1444 1443 1441 1440 1439 1439 1438 1438 1438 1438 1439 1440 1441 1442 1443 1444 1446 1447 1449 1451 1453 1455 1456 1458
1480 1478 1477 1475 1476 1478 1473 1468 1471 1472 1468 1465 1462 1459 1457 1455 1453 1451 1448 1446 1444 1442 1441 1440 1439 1438 1438 1437 1437 1437 1438 1439 1440 1441 1442 1443 1445 1446 1448 1450 1451 1453 1455 1456
1481 1483 1481 1480 1482 1478 1475 1474 1473 1470 1468 1465 1462 1460 1457 1455 1453 1450 1448 1446 1444 1443 1441 1440 1439 1438 1438 1437 1437 1437 1438 1438 1439 1440 1441 1442 1444 1445 1447 1449 1450 1452 1453 1455
1482 1480 1480 1479 1477 1477 1475 1474 1472 1470 1468 1465 1462 1460 1457 1455 1452 1450 1448 1446 1445 1443 1441 1440 1439 1438 1438 1438 1438 1437 1438 1438 1438 1439 1441 1442 1443 1444 1446 1447 1449 1450 1451 1453
1486 1483 1482 1480 1479 1477 1475 1474 1472 1470 1467 1464 1461 1459 1457 1454 1452 1450 1448 1446 1445 1443 1442 1441 1440 1439 1438 1438 1438 1438 1438 1438 1438 1439 1440 1441 1442 1443 1444 1446 1447 1449 1450 1451
1487 1487 1485 1483 1480 1479 1477 1474 1472 1469 1466 1463 1461 1458 1456 1454 1452 1450 1448 1447 1445 1444 1443 1441 1440 1439 1439 1438 1438 1438 1438 1438 1438 1438 1439 1440 1441 1442 1443 1444 1446 1447 1449 1450